Greenwood, SC

11:10 PM EDT on March 22, 2017 (GMT -0400)
Greenwood County

Weather History for KGRD - March, 2013

Change the Weather History Date:

Sunday, March 17, 2013

  Actual Average (KAND) Record (KAND)
Temperature  
Mean Temperature 65 °F -  
Max Temperature 75 °F 62 °F 84 °F (2015)
Min Temperature 55 °F 39 °F 26 °F (1954)
Growing Degree Days 15 (Base 50)    
Moisture  
Dew Point 46 °F    
Average Humidity 52    
Maximum Humidity 69    
Minimum Humidity 40    
Precipitation  
Precipitation 0.00 in - - ()
Sea Level Pressure  
Sea Level Pressure 29.96 in    
Wind  
Wind Speed 10 mph (SW)    
Max Wind Speed 15 mph    
Max Gust Speed 22 mph    
Visibility 10 miles    
Events      
Averages and records for this station are not official NWS values.
T = Trace of Precipitation, MM = Missing Value Source: NWS Daily Summary

Daily Weather History Graph

Daily Weather History Graph

Search for Another Location

Airport or City:

Trip Planner

Search our weather history database for the weather conditions in past years. The results will help you decide how hot, cold, wet, or windy it might be!

Date:

Astronomy

Mar. 17, 2013 Rise Set
Actual Time 7:36 AM EDT 7:38 PM EDT
Civil Twilight 7:11 AM EDT 8:03 PM EDT
Nautical Twilight 6:41 AM EDT 8:32 PM EDT
Astronomical Twilight 6:12 AM EDT 9:01 PM EDT
Moon 11:02 AM EDT (3/17) 12:31 AM EDT (3/17)
Length of Visible Light 12h 52m
Length of Day
12h 02m
Waxing Crescent, 31% of the Moon is Illuminated
Mar 17
Waxing Crescent
Mar 19
First Quarter
Mar 27
Full
Apr 3
Last Quarter
Apr 10
New

Hourly Weather History & Observations

Time (EDT) Temp. Dew Point Humidity Pressure Visibility Wind Dir Wind Speed Gust Speed Precip Events Conditions
12:56 AM 63.0 °F 39.0 °F 41% 29.94 in 10.0 mi WSW 8.1 mph - N/A   Clear
1:56 AM 62.1 °F 39.0 °F 43% 29.94 in 10.0 mi WSW 10.4 mph - N/A   Clear
2:56 AM 59.0 °F 39.0 °F 48% 29.95 in 10.0 mi WSW 9.2 mph - N/A   Clear
3:56 AM 57.0 °F 39.0 °F 51% 29.94 in 10.0 mi SW 9.2 mph - N/A   Clear
4:56 AM 55.9 °F 41.0 °F 57% 29.93 in 10.0 mi SW 9.2 mph - N/A   Clear
5:56 AM 55.0 °F 42.1 °F 62% 29.94 in 10.0 mi SW 10.4 mph - N/A   Clear
6:56 AM 55.9 °F 45.0 °F 67% 29.96 in 10.0 mi WSW 15.0 mph - N/A   Clear
7:56 AM 55.9 °F 46.0 °F 69% 29.97 in 10.0 mi WSW 10.4 mph - N/A   Clear
8:56 AM 59.0 °F 46.9 °F 64% 29.99 in 10.0 mi SW 15.0 mph 21.9 mph N/A   Clear
9:56 AM 63.0 °F 48.9 °F 60% 30.00 in 10.0 mi SW 15.0 mph 21.9 mph N/A   Clear
10:56 AM 66.9 °F 50.0 °F 54% 30.00 in 10.0 mi WSW 10.4 mph 20.7 mph N/A   Clear
11:56 AM 70.0 °F 50.0 °F 49% 29.99 in 10.0 mi WSW 10.4 mph 18.4 mph N/A   Clear
12:56 PM 71.1 °F 50.0 °F 47% 29.97 in 10.0 mi SW 10.4 mph 17.3 mph N/A   Clear
1:56 PM 75.0 °F 50.0 °F 41% 29.94 in 10.0 mi SSW 11.5 mph 17.3 mph N/A   Partly Cloudy
2:56 PM 73.9 °F 48.0 °F 40% 29.93 in 10.0 mi West 10.4 mph 17.3 mph N/A   Partly Cloudy
3:56 PM 73.9 °F 48.0 °F 40% 29.91 in 10.0 mi SSW 15.0 mph - N/A   Partly Cloudy
4:56 PM 73.9 °F 48.9 °F 41% 29.91 in 10.0 mi SW 9.2 mph - N/A   Mostly Cloudy
5:56 PM 71.1 °F 48.9 °F 45% 29.91 in 10.0 mi SSW 10.4 mph - N/A   Partly Cloudy
6:56 PM 70.0 °F 48.9 °F 47% 29.93 in 10.0 mi SSW 11.5 mph 19.6 mph N/A   Mostly Cloudy
7:56 PM 66.9 °F 48.9 °F 52% 29.95 in 10.0 mi SSW 11.5 mph 17.3 mph N/A   Scattered Clouds
8:56 PM 66.0 °F 48.0 °F 52% 29.97 in 10.0 mi SSW 8.1 mph - N/A   Clear
9:56 PM 63.0 °F 46.9 °F 56% 29.98 in 10.0 mi SSW 6.9 mph - N/A   Clear
10:56 PM 61.0 °F 48.0 °F 62% 30.00 in 10.0 mi SSW 6.9 mph - N/A   Clear
11:56 PM 62.1 °F 48.9 °F 62% 30.01 in 10.0 mi SSW 6.9 mph - N/A   Clear